Location: Unspecified
(41.5516°N, 88.1098°W)
Time: 00:16:08
(UTC-05:00)

Cosmos 1674 - Visible Passes

Search period start: 29 March 2017 00:00
Search period end: 08 April 2017 00:00
Orbit: 498 x 524 km, 82.5° (Epoch: 27 March)

Date Brightness Start Highest point End Pass type
(mag) Time Alt. Az. Time Alt. Az. Time Alt. Az.
29 Mar 2.6 20:12:05 10° N 20:15:51 67° E 20:19:38 10° SSE visible
30 Mar 2.8 19:55:42 10° N 19:59:25 51° E 20:03:07 10° SSE visible
31 Mar 5.8 21:16:26 10° WNW 21:18:10 13° W 21:19:55 10° WSW visible
01 Apr 5.7 20:59:25 10° NW 21:01:49 16° W 21:04:13 10° SW visible
02 Apr 5.5 20:42:36 10° NW 20:45:27 20° W 20:48:18 10° SW visible
03 Apr 5.1 20:25:54 10° NNW 20:29:04 25° W 20:32:15 10° SSW visible
04 Apr 4.7 20:09:15 10° NNW 20:12:41 32° W 20:16:07 10° SSW visible
05 Apr 4.2 19:52:40 10° NNW 19:56:17 41° W 19:59:54 10° SSW visible
